HINODE (SOLAR-B)

Last updated on Tue Jul 08 2025 00:03:30 GMT+0000 (Coordinated Universal Time)

1 29479U 06041A 25188.56856268 .00000563 00000+0 10670-3 0 9992 2 29479 98.0709 204.6125 0016379 303.7669 56.1975 14.67956225 4303
UTC large
Height (km)
Speed (km/s)
/
Latitude / Longitude
Inclination (degrees)
Orbital Period (minutes)
Azimuth
Elevation
Range (km)
Doppler Factor

Next 0 passes for location: London (51.5072 / 0.1276)

Sorry there are no passes over London.